This is the latest recevied weather packets stored in our database for station/object SQ3MKP-13. If no packets are shown the sender has not sent any weather packets the latest 10 day(s).
| Time | Temp. | Humidity | Pressure | Rain* | Wind** | Luminosity | Snow |
|---|---|---|---|---|---|---|---|
| 1777726306 | 23.89° C | 31% | 1011.5 hPa | - | - | 598 W/m² | - |
| 1777726005 | 23.89° C | 31% | 1011.6 hPa | - | - | 604 W/m² | - |
| 1777725704 | 23.89° C | 33% | 1011.6 hPa | - | - | 609 W/m² | - |
| 1777725403 | 23.89° C | 32% | 1011.7 hPa | - | - | 620 W/m² | - |
| 1777725102 | 23.89° C | 32% | 1011.8 hPa | - | - | 627 W/m² | - |
| 1777724801 | 24.44° C | 33% | 1011.9 hPa | - | - | 636 W/m² | - |
| 1777724499 | 23.89° C | 31% | 1011.9 hPa | - | - | 643 W/m² | - |
| 1777724199 | 23.33° C | 32% | 1012 hPa | - | - | 648 W/m² | - |
| 1777723897 | 23.89° C | 32% | 1012.1 hPa | - | - | 655 W/m² | - |
| 1777723596 | 23.89° C | 32% | 1012.1 hPa | - | - | 657 W/m² | - |
| 1777723295 | 23.33° C | 31% | 1012.2 hPa | - | - | 665 W/m² | - |
| 1777722994 | 24.44° C | 32% | 1012.3 hPa | - | - | 667 W/m² | - |
| 1777722694 | 23.89° C | 32% | 1012.3 hPa | - | - | 668 W/m² | - |
| 1777722393 | 23.33° C | 33% | 1012.4 hPa | - | - | 679 W/m² | - |
| 1777722092 | 23.89° C | 32% | 1012.4 hPa | - | - | 685 W/m² | - |
| 1777721791 | 23.33° C | 33% | 1012.5 hPa | - | - | 685 W/m² | - |
| 1777721490 | 23.33° C | 33% | 1012.6 hPa | - | - | 684 W/m² | - |
| 1777721189 | 23.33° C | 33% | 1012.5 hPa | - | - | 691 W/m² | - |
| 1777720889 | 23.33° C | 32% | 1012.6 hPa | - | - | 694 W/m² | - |
| 1777720587 | 22.78° C | 33% | 1012.7 hPa | - | - | 695 W/m² | - |
| 1777720286 | 23.33° C | 34% | 1012.8 hPa | - | - | 691 W/m² | - |
| 1777719985 | 23.89° C | 33% | 1012.7 hPa | - | - | 691 W/m² | - |
| 1777719684 | 24.44° C | 32% | 1012.8 hPa | - | - | 689 W/m² | - |
| 1777719384 | 23.89° C | 32% | 1012.8 hPa | - | - | 687 W/m² | - |
| 1777719083 | 23.33° C | 32% | 1012.9 hPa | - | - | 689 W/m² | - |
* Rain since midnight (hover to see other rain measurements)
** Current wind speed in m/s (hover to see current wind gust speed)